Flag for U.S.A. Weather past 2 weeks in Jersey City, New Jersey, U.S.A.

Now
74 °F

Scattered clouds.


Feels Like: 77 °F
Forecast: 64 / 85 °F
Wind: No wind

Location: Newark International Airport

Current Time: Aug 29, 2015 at 9:42:01 AM

Latest Report: Aug 29, 2015 at 8:51 AM


Visibility: 10 mi

Pressure: 30.21 "Hg

Humidity: 52%

Dew point: 55 °F

Location of Jersey CityLocation

Historic Weather in Jersey City — Graph

°F

Jersey City temperature yesterday

Maximum temperature yesterday: 83 °F (at 4:51 PM)
Minimum temperature yesterday: 63 °F (at 5:51 AM)
Average temperature yesterday: 73 °F

Past Weeks' High & Low Weather Summary

 TemperatureHumidityPressure
High97 °F (Aug 17, 4:51 PM)94% (Aug 21, 3:02 AM)30.22 "Hg (Aug 21, 3:02 AM)
Low63 °F (Aug 28, 5:51 AM)27% (Aug 17, 4:51 PM)29.80 "Hg (Aug 25, 3:51 PM)
Average79 °F58%30.02 "Hg
* Reported Aug 14 7:51 AM — Aug 29 7:51 AM, Jersey City, Weather by CustomWeather, © 2015

Note: Actual official high and low records may vary slightly from our data, if they occured in-between our weather recording intervals... More about our weather records

Advertising

Jersey City weather history for previous 24 hours

 ConditionsComfort  
Time TempWeatherWind HumidityBarometerVisibility
7:51 AM
Sat, Aug 29
70 °FScattered clouds.No wind64%30.22 "Hg10 mi
6:51 AM66 °FPassing clouds.No wind70%30.20 "Hg10 mi
5:51 AM64 °FPassing clouds.No wind73%30.19 "Hg10 mi
4:51 AM64 °FPassing clouds.No wind73%30.18 "Hg10 mi
3:51 AM64 °FPassing clouds.No wind70%30.18 "Hg10 mi
2:51 AM66 °FPassing clouds.No wind70%30.19 "Hg10 mi
1:51 AM69 °FPassing clouds.No wind73%30.18 "Hg10 mi
12:51 AM69 °FPassing clouds.5 mph59%30.19 "Hg10 mi
11:51 PM
Fri, Aug 28
72 °FPassing clouds.3 mph57%30.19 "Hg10 mi
10:51 PM72 °FPassing clouds.5 mph52%30.19 "Hg10 mi
9:51 PM74 °FPassing clouds.6 mph46%30.19 "Hg10 mi
8:51 PM76 °FPassing clouds.7 mph45%30.16 "Hg10 mi
7:51 PM77 °FScattered clouds.8 mph42%30.14 "Hg10 mi
6:51 PM79 °FScattered clouds.10 mph39%30.13 "Hg10 mi
5:51 PM81 °FScattered clouds.7 mph35%30.12 "Hg10 mi
4:51 PM83 °FPassing clouds.8 mph32%30.13 "Hg10 mi
3:51 PM82 °FPassing clouds.7 mph34%30.13 "Hg10 mi
2:51 PM82 °FPassing clouds.8 mph33%30.14 "Hg10 mi
1:51 PM81 °FPassing clouds.9 mph33%30.15 "Hg10 mi
12:51 PM80 °FScattered clouds.13 mph34%30.17 "Hg10 mi
11:51 AM79 °FScattered clouds.9 mph36%30.18 "Hg10 mi
10:51 AM77 °FPassing clouds.7 mph42%30.19 "Hg10 mi
9:51 AM74 °FPassing clouds.10 mph45%30.18 "Hg10 mi
Weather by CustomWeather, © 2015

See weather overviewHow to use our weather pages